Theta_e
355 351 351 355 352 352 353 354 360 357 357 354 356 353 350 360 360 362 362 360 363 359
354 353 353 356 356 354 357 356 358 358 357 359 359 359 355 357 360 361 362 364 362 358
354 355 355 356 354 356 357 358 358 358 359 359 359 361 360 359 361 363 359 358 360 362
353 354 355 354 355 356 357 358 358 359 358 359 359 361 362 362 361 360 360 359 358 358
353 354 353 353 354 356 356 358 359 360 361 361 360 361 361 359 357 358 358 358 359 358
351 351 351 352 354 355 356 357 358 358 359 360 360 360 360 360 360 359 358 358 358 357
351 351 351 353 354 354 355 356 358 359 359 360 361 360 359 359 359 359 358 359 359 359
356 355 355 354 354 354 354 355 358 359 358 358 358 355 359 360 360 360 358 359 359 359
352 354 353 355 355 355 354 355 357 357 358 359 355 341 338 351 360 358 358 359 359 359
351 351 353 354 355 354 354 355 355 355 356 356 358 334 334 338 355 358 360 358 357 356
352 351 353 353 353 355 355 354 355 355 356 356 356 330 329 336 356 355 354 352 351 348
351 352 353 352 352 354 354 354 354 355 356 356 354 323 325 335 351 351 347 347 346 348
352 351 349 351 353 354 355 355 354 353 352 339 343 321 324 330 347 343 338 334 329 324
345 349 351 351 350 349 348 344 340 335 335 336 333 331 320 323 342 338 332 328 327 322
Wind_Speed
11 8 7 7 5 6 6 5 5 6 5 4 4 3 3 3 2 2 3 2 1 2
11 10 8 8 6 5 6 5 5 6 7 6 5 5 4 4 4 3 3 3 1 2
12 11 9 7 8 7 7 7 7 8 7 7 7 7 6 5 4 4 3 3 3 3
11 11 10 9 8 7 6 7 8 8 8 8 8 8 8 7 5 6 5 4 5 6
12 11 12 11 10 9 9 8 9 7 7 7 8 9 10 9 7 8 7 7 6 7
13 13 14 13 12 11 10 9 8 8 9 7 8 10 10 9 9 8 8 9 8 8
15 15 14 13 13 13 12 10 9 9 9 8 8 9 10 10 10 10 9 8 8 9
14 14 14 14 13 13 13 12 11 9 9 9 8 8 10 9 9 8 8 9 9 9
12 12 14 14 13 12 13 13 12 12 11 11 8 8 9 10 9 9 9 9 9 7
13 13 14 13 13 14 14 13 13 13 12 12 11 8 8 8 9 8 8 7 6 6
13 13 12 12 14 14 13 13 13 13 13 12 10 7 8 8 7 5 5 4 3 4
12 14 14 14 14 13 12 12 12 12 12 11 6 8 9 7 6 7 6 5 5 7
11 13 14 13 13 11 10 10 8 6 6 4 7 7 7 6 4 7 6 4 4 6
6 7 6 7 7 9 7 7 7 7 6 8 7 5 6 9 5 6 5 4 4 4
Wind_Direction
221 225 225 211 216 218 222 207 181 194 196 200 205 212 213 214 238 276 301 268 314 328
213 218 217 215 211 219 223 232 196 202 205 200 207 217 204 223 223 228 244 235 233 296
212 214 220 212 220 215 221 222 222 213 216 217 207 208 214 216 208 227 222 230 238 259
212 219 218 220 218 231 226 215 216 223 226 227 225 213 218 229 233 226 237 246 250 263
219 220 223 224 221 212 225 226 233 232 223 235 228 219 220 226 228 230 240 253 254 273
219 224 227 227 228 227 221 228 227 225 234 234 235 223 221 229 233 235 246 254 251 263
215 220 227 226 225 225 223 222 229 226 229 230 228 216 222 226 231 236 245 250 255 260
215 213 218 220 219 227 223 220 213 222 224 227 223 221 226 235 236 244 255 264 263 261
226 218 219 216 210 217 227 222 219 216 220 226 233 228 215 234 239 250 260 265 272 272
217 215 218 220 218 209 217 219 218 223 230 234 240 213 214 213 255 259 260 267 280 286
232 226 219 219 222 217 216 215 217 221 223 235 241 172 176 186 241 237 234 229 210 169
219 222 215 217 222 222 211 214 217 221 220 223 203 158 156 173 204 206 186 171 173 180
220 214 216 216 218 219 216 215 214 200 201 172 155 161 168 208 198 182 167 142 109 19
157 174 183 188 186 191 178 129 139 138 139 135 137 156 205 223 241 166 157 152 126 81